[[{"header":{"parameterUnit":"m.s-1","parameterCategory":1,"la1":30.2991,"la2":30.254,"lo1":-89.0895,"lo2":-89.0444,"dy":0.0017,"dx":0.0017,"nx":28,"ny":28,"refTime":"2024-03-07T09:00:00:Z","depth":0,"parameterNumber":2,"parameterNumberName":"U-component_of_WINDS"},"data":[0,0,0,0,0,0,0,0,0,0,0,0,0,0,0,0,0,0,0,0,0,0,0,0,0,0,0,0,0,0,0,0,0,0,0,0,0,0,0,0,0,0,0,0,0,0,0,0,0,0,0,0,0,0,0,0,0,0,-3.1087,-3.1087,0,-3.1083,-3.1083,-3.1083,-3.0953,-3.095,-3.0946,-3.0943,-3.0939,-3.0942,-3.0945,0,0,0,0,0,0,0,0,0,0,0,0,0,-3.0982,-3.0984,-3.1087,-3.1087,-3.1087,-3.1083,-3.1083,-3.1083,-3.0954,-3.0949,-3.0945,-3.0942,-3.0938,-3.0941,-3.0945,0,0,0,0,0,0,0,0,0,0,0,0,0,-3.1008,-3.0985,-3.1087,-3.1022,-3.1016,-3.1083,-3.1083,-3.1083,-3.0954,-3.0949,-3.0944,-3.094,-3.0936,-3.0941,-3.0945,-3.1074,0,0,-3.0959,-3.0961,0,0,0,0,0,0,0,0,-3.1006,-3.1012,-3.1031,-3.1026,-3.102,-3.1013,-3.1044,-3.108,-3.0956,-3.0978,-3.0943,-3.0937,-3.0968,-3.0969,-3.0979,-3.1074,-3.1074,-3.096,-3.0962,-3.0964,-3.0966,0,0,0,0,0,0,0,-3.1005,-3.1011,-3.1085,-3.1032,-3.1025,-3.0993,-3.0991,-3.105,-3.1001,-3.0975,-3.0966,-3.0967,-3.0963,-3.0975,-3.0978,-3.1074,-3.0959,-3.0963,-3.0966,-3.0968,-3.1274,-3.1279,0,0,0,0,0,0,-3.1012,-3.1011,-3.1085,-3.1085,-3.1001,-3.0999,-3.0996,-3.102,-3.1,-3.0992,-3.0972,-3.0961,-3.097,-3.0973,-3.0978,-3.1127,-3.0964,-3.0968,-3.0971,-3.1268,-3.1275,-3.1281,0,0,0,0,0,0,-3.101,-3.102,-3.1085,-3.1045,-3.1051,-3.1006,-3.1034,-3.1023,-3.1035,-3.0997,-3.0988,-3.0993,-3.0966,-3.0971,-3.1051,-3.1125,-3.097,-3.0975,-3.1262,-3.127,-3.1278,-3.1427,0,0,0,0,0,0,-3.1008,-3.102,-3.1069,-3.1047,-3.1054,-3.1159,-3.1038,-3.1027,-3.1043,-3.1029,-3.1015,-3.1007,-3.0963,-3.1045,-3.1056,-3.1129,-3.0978,-3.1255,-3.1266,-3.1275,-3.1416,-3.144,-3.146,0,0,0,0,0,-3.1005,-3.1111,-3.1072,-3.1081,-3.1113,-3.1164,-3.1167,-3.1114,-3.105,-3.1098,-3.1074,-3.1008,-3.1116,-3.1054,-3.1065,-3.1141,-3.125,-3.1263,-3.1274,-3.1406,-3.1435,-3.146,0,0,0,0,0,0,-3.1141,-3.1106,-3.1063,-3.1165,-3.1169,-3.1142,-3.1201,-3.1147,-3.1168,-3.1155,-3.1088,-3.1085,-3.1176,-3.1166,-3.1098,-3.1264,-3.1171,-3.1186,-3.1267,-3.1295,-3.1317,-3.1317,-3.0982,0,0,0,0,0,-3.1183,-3.1227,-3.1194,-3.1288,-3.1292,-3.1247,-3.1267,-3.1226,-3.1226,-3.1227,-3.1208,-3.1211,-3.1245,-3.127,-3.1299,-3.1414,-3.1409,-3.1471,-3.1493,-3.1512,-3.1525,-3.1585,-3.1613,-3.1321,-3.1321,-3.132,0,0,-3.127,-3.1257,-3.1289,-3.1315,-3.1313,-3.136,-3.1249,-3.1303,-3.1337,-3.1235,-3.1309,-3.1296,-3.1295,-3.1393,-3.1435,-3.1387,-3.1605,-3.1527,-3.1542,-3.1546,-3.1601,-3.1629,-3.1653,-3.1329,-3.1327,-3.1326,0,0,-3.1453,-3.1448,-3.1525,-3.1525,-3.1524,-3.1493,-3.1512,-3.1494,-3.1481,-3.1555,-3.1479,-3.1519,-3.158,-3.1582,-3.1591,-3.1777,-3.1717,-3.1788,-3.1904,-3.1964,-3.1987,-3.2007,-3.2073,-3.2098,-3.1802,-3.1802,-3.1803,0,-3.1562,-3.163,-3.1572,-3.1631,-3.1645,-3.1556,-3.1633,-3.1636,-3.1645,-3.1656,-3.1603,-3.1678,-3.1671,-3.1768,-3.1814,-3.1824,-3.1843,-3.1789,-3.1988,-3.2008,-3.2026,-3.2088,-3.2113,-3.1811,-3.181,-3.1809,-3.1808,0,-3.1763,-3.1812,-3.1875,-3.1885,-3.1906,-3.1975,-3.1927,-3.1956,-3.1913,-3.1889,-3.1965,-3.1953,-3.1979,-3.1999,-3.1958,-3.2092,-3.2062,-3.2,-3.1905,-3.2063,-3.2121,-3.2144,-3.1824,-3.182,-3.1818,-3.1816,0,0,-3.2031,-3.201,-3.2034,-3.2038,-3.203,-3.2066,-3.2131,-3.2157,-3.2182,-3.2191,-3.2244,-3.2298,-3.2241,-3.2251,-3.221,-3.2262,-3.241,-3.2193,-3.2192,-3.2234,-3.2557,-3.2603,-3.2632,-3.2371,-3.2375,-3.2378,-3.2557,0,-3.2208,-3.2317,-3.2268,-3.2383,-3.2427,-3.2343,-3.2399,-3.2401,-3.238,-3.2414,-3.239,-3.243,-3.2351,-3.2357,-3.2405,-3.2382,-3.2474,-3.2368,-3.2419,-3.2421,-3.2422,-3.2662,-3.2711,-3.288,-3.2579,-3.2582,-3.2585,0,-3.2428,-3.2447,-3.2567,-3.2552,-3.2569,-3.262,-3.264,-3.2674,-3.2674,-3.2655,-3.2669,-3.2615,-3.2678,-3.2584,-3.267,-3.2599,-3.2617,-3.2609,-3.2614,-3.2616,-3.2513,-3.267,-3.2932,-3.2958,-3.262,-3.2617,-3.2615,0,-3.2612,-3.2667,-3.2746,-3.2752,-3.2736,-3.2775,-3.277,-3.2765,-3.2784,-3.2802,-3.2813,-3.2838,-3.2852,-3.2872,-3.2827,-3.2763,-3.2919,-3.2821,-3.2905,-3.2906,-3.2941,-3.2939,-3.3209,-3.2953,-3.2953,-3.2952,-3.2952,0,-3.2814,-3.289,-3.2828,-3.2877,-3.296,-3.2902,-3.2986,-3.2972,-3.2969,-3.3013,-3.2942,-3.2986,-3.2923,-3.2961,-3.2926,-3.3002,-3.3009,-3.2995,-3.2985,-3.3001,-3.3003,-3.3011,-3.2998,-3.2959,-3.2958,-3.2956,-3.2955,0,-3.3032,-3.2993,-3.3074,-3.3053,-3.305,-3.3112,-3.3094,-3.3138,-3.3112,-3.3169,-3.318,-3.314,-3.318,-3.3137,-3.3174,-3.315,-3.3253,-3.3226,-3.3253,-3.3246,-3.3331,-3.3324,-3.3615,-3.3651,-3.3373,-3.3376,-3.3378,0,-3.3163,-3.322,-3.3206,-3.3231,-3.3231,-3.3272,-3.3291,-3.3237,-3.326,-3.3265,-3.3309,-3.3343,-3.3367,-3.3435,-3.3409,-3.3438,-3.341,-3.3511,-3.3414,-3.3429,-3.3411,-3.3408,-3.3414,-3.353,-3.3533,-3.3536,-3.3538,0,-3.3401,-3.3379,-3.341,-3.3435,-3.346,-3.3477,-3.3488,-3.3512,-3.3456,-3.3486,-3.3526,-3.3545,-3.3583,-3.3618,-3.3639,-3.3634,-3.3578,-3.3569,-3.359,-3.3607,-3.362,-3.3614,-3.3307,-3.3562,-3.356,-3.3558,-3.3557,-3.3556,-3.3579,-3.3626,-3.3623,-3.366,-3.3663,-3.3676,-3.3716,-3.3697,-3.373,-3.3757,-3.3723,-3.3773,-3.3772,-3.3794,-3.3796,-3.3834,-3.3791,-3.3821,-3.3829,-3.3837,-3.385,-3.3615,-3.3838,-3.3837,-3.3836,-3.3836,-3.3835,0,-3.3812,-3.3806,-3.3841,-3.386,-3.3889,-3.3834,-3.3844,-3.3872,-3.3917,-3.3921,-3.3947,-3.3994,-3.4028,-3.4006,-3.4035,-3.407,-3.4045,-3.4079,-3.4076,-3.4075,-3.3886,-3.3865,-3.4099,-3.4099,-3.4099,-3.4099,-3.4099,-3.4099,-3.3936,-3.4013,-3.3992,-3.407,-3.4063,-3.4112,-3.4123,-3.4134,-3.4137,-3.4193,-3.4221,-3.4207,-3.42,-3.4228,-3.4257,-3.425,-3.4263,-3.4307,-3.4291,-3.4115,-3.4089,-3.4064,-3.4044,-3.4311,-3.4311,-3.4476,-3.4478,-3.4479]},{"header":{"parameterUnit":"m.s-1","parameterCategory":1,"la1":30.2991,"la2":30.254,"lo1":-89.0895,"lo2":-89.0444,"dy":0.0017,"dx":0.0017,"nx":28,"ny":28,"refTime":"2024-03-07T09:00:00:Z","depth":0,"parameterNumber":3,"parameterNumberName":"V-component_of_WINDS"},"data":[0,0,0,0,0,0,0,0,0,0,0,0,0,0,0,0,0,0,0,0,0,0,0,0,0,0,0,0,0,0,0,0,0,0,0,0,0,0,0,0,0,0,0,0,0,0,0,0,0,0,0,0,0,0,0,0,0,0,-1.3981,-1.3981,0,-1.3977,-1.3977,-1.3977,-1.3967,-1.3966,-1.3966,-1.3966,-1.396,-1.396,-1.396,0,0,0,0,0,0,0,0,0,0,0,0,0,-1.3978,-1.3979,-1.3981,-1.3981,-1.3981,-1.3977,-1.3977,-1.3977,-1.3967,-1.3966,-1.3966,-1.3966,-1.396,-1.396,-1.396,0,0,0,0,0,0,0,0,0,0,0,0,0,-1.3977,-1.3979,-1.3981,-1.3976,-1.3975,-1.3977,-1.3977,-1.3977,-1.3967,-1.3966,-1.3966,-1.3966,-1.396,-1.396,-1.396,-1.3966,0,0,-1.396,-1.396,0,0,0,0,0,0,0,0,-1.3977,-1.3977,-1.3977,-1.3976,-1.3976,-1.3972,-1.3973,-1.3973,-1.3967,-1.397,-1.3966,-1.3966,-1.3964,-1.3964,-1.3963,-1.3966,-1.3965,-1.396,-1.396,-1.396,-1.396,0,0,0,0,0,0,0,-1.3978,-1.3978,-1.3979,-1.3977,-1.3976,-1.3972,-1.3972,-1.3973,-1.3969,-1.397,-1.3969,-1.3969,-1.3964,-1.3963,-1.3963,-1.3965,-1.396,-1.396,-1.396,-1.396,-1.397,-1.397,0,0,0,0,0,0,-1.3979,-1.3978,-1.398,-1.3979,-1.3976,-1.3973,-1.3972,-1.3973,-1.3969,-1.3968,-1.3969,-1.3968,-1.3963,-1.3963,-1.3963,-1.3968,-1.396,-1.396,-1.396,-1.397,-1.397,-1.397,0,0,0,0,0,0,-1.3979,-1.3979,-1.398,-1.3978,-1.3978,-1.3973,-1.3975,-1.3973,-1.3973,-1.3968,-1.3967,-1.397,-1.3963,-1.3963,-1.3965,-1.3968,-1.396,-1.396,-1.3969,-1.397,-1.397,-1.3981,0,0,0,0,0,0,-1.3979,-1.3979,-1.3982,-1.3979,-1.3978,-1.3983,-1.3975,-1.3974,-1.3974,-1.3973,-1.3968,-1.3967,-1.3963,-1.3965,-1.3965,-1.3968,-1.396,-1.3969,-1.397,-1.397,-1.398,-1.3981,-1.3982,0,0,0,0,0,-1.3979,-1.3985,-1.3982,-1.3983,-1.3982,-1.3983,-1.3983,-1.3978,-1.3974,-1.3976,-1.3973,-1.3968,-1.3968,-1.3965,-1.3965,-1.3968,-1.3969,-1.3969,-1.397,-1.3979,-1.3981,-1.3982,0,0,0,0,0,0,-1.3989,-1.3985,-1.3982,-1.3988,-1.3986,-1.3981,-1.3985,-1.398,-1.3979,-1.3978,-1.3972,-1.3971,-1.3973,-1.3971,-1.3968,-1.3973,-1.3967,-1.3968,-1.3974,-1.3976,-1.3977,-1.3978,-1.396,0,0,0,0,0,-1.3993,-1.3994,-1.399,-1.3996,-1.3995,-1.399,-1.399,-1.3986,-1.3984,-1.3983,-1.398,-1.3977,-1.3976,-1.3976,-1.3975,-1.3979,-1.3977,-1.3981,-1.3983,-1.3984,-1.3984,-1.3984,-1.3986,-1.3972,-1.3972,-1.3972,0,0,-1.3999,-1.3997,-1.3998,-1.3998,-1.3996,-1.3997,-1.3989,-1.3991,-1.3991,-1.3983,-1.3985,-1.3982,-1.3978,-1.3981,-1.3982,-1.3979,-1.3987,-1.3984,-1.3985,-1.3985,-1.3985,-1.3986,-1.3988,-1.3973,-1.3973,-1.3972,0,0,-1.4011,-1.401,-1.4014,-1.4012,-1.4009,-1.4006,-1.4007,-1.4003,-1.4,-1.4002,-1.3995,-1.3995,-1.3994,-1.3992,-1.399,-1.3999,-1.3994,-1.3999,-1.4006,-1.4006,-1.4007,-1.4008,-1.401,-1.4011,-1.4,-1.4,-1.4,0,-1.4019,-1.4021,-1.4016,-1.4018,-1.4017,-1.401,-1.4013,-1.4011,-1.4008,-1.4007,-1.4004,-1.4002,-1.3999,-1.4,-1.4002,-1.4002,-1.4002,-1.4,-1.4007,-1.4008,-1.4009,-1.4011,-1.4012,-1.4,-1.4,-1.4,-1.4,0,-1.4031,-1.4032,-1.4035,-1.4033,-1.4032,-1.4035,-1.4029,-1.4029,-1.4024,-1.4021,-1.4021,-1.4017,-1.4015,-1.4015,-1.4011,-1.4015,-1.4013,-1.4009,-1.4003,-1.4011,-1.4013,-1.4013,-1.4001,-1.4001,-1.4001,-1.4,0,0,-1.405,-1.4044,-1.4045,-1.4043,-1.4039,-1.4039,-1.404,-1.4038,-1.4038,-1.4035,-1.4036,-1.4034,-1.403,-1.4028,-1.4023,-1.4024,-1.403,-1.4019,-1.4019,-1.4021,-1.4032,-1.4035,-1.4036,-1.4026,-1.4026,-1.4026,-1.4032,0,-1.4061,-1.4063,-1.4058,-1.4061,-1.4062,-1.4054,-1.4055,-1.4051,-1.4048,-1.4046,-1.4042,-1.4041,-1.4035,-1.4034,-1.4034,-1.4029,-1.4032,-1.4029,-1.4025,-1.4025,-1.4026,-1.4037,-1.4041,-1.4047,-1.4033,-1.4033,-1.4033,0,-1.4074,-1.4072,-1.4075,-1.4069,-1.4069,-1.407,-1.4067,-1.4066,-1.4062,-1.4059,-1.4056,-1.4051,-1.405,-1.4045,-1.4043,-1.4041,-1.4039,-1.4036,-1.4036,-1.4035,-1.4029,-1.4036,-1.4049,-1.4049,-1.4034,-1.4034,-1.4034,0,-1.4086,-1.4085,-1.4086,-1.4085,-1.4078,-1.4079,-1.4076,-1.4071,-1.407,-1.4067,-1.4065,-1.4062,-1.406,-1.4057,-1.405,-1.4047,-1.4048,-1.4043,-1.4045,-1.4045,-1.4046,-1.4046,-1.4057,-1.4045,-1.4045,-1.4045,-1.4045,0,-1.4098,-1.41,-1.4091,-1.4092,-1.4094,-1.4087,-1.4089,-1.4085,-1.408,-1.4079,-1.4072,-1.4071,-1.4063,-1.406,-1.4055,-1.4053,-1.4053,-1.4049,-1.4048,-1.405,-1.405,-1.4048,-1.4048,-1.4045,-1.4045,-1.4045,-1.4045,0,-1.4112,-1.4107,-1.4108,-1.4101,-1.41,-1.4101,-1.4095,-1.4095,-1.409,-1.4089,-1.4088,-1.408,-1.4077,-1.407,-1.4065,-1.4061,-1.406,-1.4058,-1.4062,-1.4061,-1.4063,-1.4063,-1.4074,-1.4074,-1.4063,-1.4063,-1.4063,0,-1.412,-1.4122,-1.4115,-1.4114,-1.4112,-1.411,-1.4109,-1.4101,-1.41,-1.4094,-1.4094,-1.409,-1.4087,-1.4082,-1.4075,-1.407,-1.4067,-1.4071,-1.4067,-1.4068,-1.4066,-1.4066,-1.4066,-1.4072,-1.4073,-1.4073,-1.4073,0,-1.4134,-1.4131,-1.4129,-1.4126,-1.4124,-1.4121,-1.4118,-1.4117,-1.4109,-1.4107,-1.4104,-1.4101,-1.4095,-1.4091,-1.4085,-1.4081,-1.4075,-1.4074,-1.4074,-1.4076,-1.4078,-1.4076,-1.4064,-1.4074,-1.4074,-1.4074,-1.4074,-1.4074,-1.4145,-1.4145,-1.414,-1.4138,-1.4135,-1.4131,-1.413,-1.4125,-1.4123,-1.4118,-1.4113,-1.411,-1.4104,-1.4096,-1.4092,-1.4088,-1.4085,-1.4086,-1.4086,-1.4086,-1.4086,-1.4079,-1.4087,-1.4087,-1.4087,-1.4087,-1.4087,0,-1.4158,-1.4154,-1.4152,-1.4147,-1.4145,-1.414,-1.4135,-1.4134,-1.4131,-1.4126,-1.4123,-1.4118,-1.4114,-1.4106,-1.4101,-1.4099,-1.4096,-1.4098,-1.4098,-1.4097,-1.409,-1.409,-1.4101,-1.4101,-1.4101,-1.4101,-1.4101,-1.4101,-1.4164,-1.4164,-1.416,-1.4157,-1.4153,-1.4151,-1.4148,-1.4145,-1.414,-1.4136,-1.4132,-1.4128,-1.4121,-1.4115,-1.411,-1.4108,-1.4106,-1.4109,-1.4105,-1.4099,-1.4098,-1.4096,-1.4096,-1.4108,-1.4108,-1.4113,-1.4113,-1.4113]}]]